When you browse on this site, cookies collect data to enhance your experience and personalize the content and advertising you see.
Visit our Privacy Policy to learn more. By continuing to use the site, you agree to this use of cookies and data.
  • In United Kingdom
  • List of Countries
  • For 7 days
  • Water Temperature
  • Weather Map
  • Weather Widgets
  • user-avatar
    Login

    Hourly Weather Pleven

    Today, 19 October, Saturday

    Time Temperature Precipitation Wind Pressure Humidity
    00:00 +18°C° 0 mm 1 mps 747 mmHg 54%
    01:00 +18°C° 0 mm 1 mps 747 mmHg 55%
    02:00 +16°C° 0 mm 1 mps 747 mmHg 57%
    03:00 +16°C° 0 mm 1 mps 747 mmHg 58%
    04:00 +16°C° 0 mm 1 mps 747 mmHg 58%
    05:00 +15°C° 0 mm 0 mps 747 mmHg 59%
    06:00 +15°C° 0 mm 0 mps 747 mmHg 57%
    07:00 +16°C° 0 mm 0 mps 747 mmHg 55%
    08:00 +17°C° 0 mm 0 mps 747 mmHg 51%
    09:00 +19°C° 0 mm 0 mps 748 mmHg 46%
    10:00 +23°C° 0 mm 1 mps 748 mmHg 41%
    11:00 +24°C° 0 mm 1 mps 748 mmHg 36%
    12:00 +25°C° 0 mm 1 mps 747 mmHg 35%
    13:00 +26°C° 0 mm 2 mps 747 mmHg 33%
    14:00 +27°C° 0 mm 2 mps 747 mmHg 31%
    15:00 +27°C° 0 mm 2 mps 747 mmHg 33%
    16:00 +26°C° 0 mm 2 mps 746 mmHg 36%
    17:00 +25°C° 0 mm 1 mps 746 mmHg 38%
    18:00 +24°C° 0 mm 1 mps 747 mmHg 42%
    19:00 +21°C° 0 mm 2 mps 747 mmHg 45%
    20:00 +20°C° 0 mm 2 mps 747 mmHg 48%
    21:00 +20°C° 0 mm 1 mps 747 mmHg 50%
    22:00 +20°C° 0 mm 1 mps 748 mmHg 52%
    23:00 +19°C° 0 mm 1 mps 748 mmHg 54%

    Tomorrow, 20 October, Sunday

    Time Temperature Precipitation Wind Pressure Humidity
    00:00 +19°C° 0 mm 1 mps 748 mmHg 55%
    01:00 +18°C° 0 mm 1 mps 748 mmHg 57%
    02:00 +18°C° 0 mm 1 mps 748 mmHg 58%
    03:00 +18°C° 0 mm 1 mps 748 mmHg 59%
    04:00 +18°C° 0 mm 1 mps 748 mmHg 60%
    05:00 +16°C° 0 mm 1 mps 748 mmHg 61%
    06:00 +18°C° 0 mm 1 mps 748 mmHg 59%
    07:00 +17°C° 0 mm 0 mps 749 mmHg 58%
    08:00 +17°C° 0 mm 0 mps 749 mmHg 56%
    09:00 +21°C° 0 mm 1 mps 749 mmHg 50%
    10:00 +23°C° 0 mm 1 mps 749 mmHg 44%
    11:00 +25°C° 0 mm 1 mps 749 mmHg 39%
    12:00 +26°C° 0 mm 1 mps 749 mmHg 37%
    13:00 +27°C° 0 mm 2 mps 749 mmHg 35%
    14:00 +28°C° 0 mm 2 mps 748 mmHg 33%
    15:00 +27°C° 0 mm 2 mps 748 mmHg 35%
    16:00 +26°C° 0 mm 2 mps 748 mmHg 37%
    17:00 +25°C° 0 mm 1 mps 748 mmHg 40%
    18:00 +24°C° 0 mm 1 mps 748 mmHg 43%
    19:00 +23°C° 0 mm 1 mps 749 mmHg 47%
    20:00 +21°C° 0 mm 1 mps 749 mmHg 51%
    21:00 +21°C° 0 mm 1 mps 749 mmHg 53%
    22:00 +20°C° 0 mm 1 mps 749 mmHg 54%
    23:00 +20°C° 0 mm 1 mps 750 mmHg 56%

    Day after tomorrow, 21 October, Monday

    Time Temperature Precipitation Wind Pressure Humidity
    00:00 +19°C° 0 mm 1 mps 750 mmHg 58%
    01:00 +19°C° 0 mm 1 mps 749 mmHg 59%
    02:00 +18°C° 0 mm 1 mps 749 mmHg 61%
    03:00 +18°C° 0 mm 1 mps 749 mmHg 62%
    04:00 +18°C° 0 mm 1 mps 749 mmHg 63%
    05:00 +15°C° 0 mm 0 mps 749 mmHg 64%
    06:00 +16°C° 0 mm 0 mps 750 mmHg 63%
    07:00 +17°C° 0 mm 0 mps 750 mmHg 61%
    08:00 +17°C° 0 mm 0 mps 750 mmHg 59%
    09:00 +21°C° 0 mm 1 mps 750 mmHg 53%
    10:00 +23°C° 0 mm 1 mps 750 mmHg 47%
    11:00 +25°C° 0 mm 1 mps 750 mmHg 41%
    12:00 +26°C° 0 mm 1 mps 750 mmHg 39%
    13:00 +27°C° 0 mm 2 mps 750 mmHg 36%
    14:00 +28°C° 0 mm 2 mps 750 mmHg 34%
    15:00 +27°C° 0 mm 2 mps 749 mmHg 36%
    16:00 +26°C° 0 mm 2 mps 749 mmHg 39%
    17:00 +25°C° 0 mm 2 mps 749 mmHg 41%
    18:00 +24°C° 0 mm 1 mps 749 mmHg 45%
    19:00 +22°C° 0 mm 1 mps 749 mmHg 49%
    20:00 +21°C° 0 mm 1 mps 750 mmHg 53%
    21:00 +20°C° 0 mm 1 mps 750 mmHg 55%
    22:00 +19°C° 0 mm 1 mps 750 mmHg 56%
    23:00 +19°C° 0 mm 1 mps 750 mmHg 58%

    22 October, Tuesday

    Time Temperature Precipitation Wind Pressure Humidity
    00:00 +18°C° 0 mm 1 mps 750 mmHg 59%
    01:00 +18°C° 0 mm 1 mps 750 mmHg 61%
    02:00 +18°C° 0 mm 1 mps 750 mmHg 62%
    03:00 +15°C° 0 mm 0 mps 750 mmHg 63%
    04:00 +15°C° 0 mm 0 mps 750 mmHg 64%
    05:00 +14°C° 0 mm 0 mps 750 mmHg 66%
    06:00 +15°C° 0 mm 0 mps 750 mmHg 64%
    07:00 +16°C° 0 mm 0 mps 750 mmHg 62%
    08:00 +16°C° 0 mm 0 mps 750 mmHg 60%
    09:00 +19°C° 0 mm 0 mps 751 mmHg 53%
    10:00 +23°C° 0 mm 1 mps 751 mmHg 46%
    11:00 +25°C° 0 mm 1 mps 751 mmHg 39%
    12:00 +26°C° 0 mm 1 mps 750 mmHg 36%
    13:00 +26°C° 0 mm 2 mps 750 mmHg 33%
    14:00 +27°C° 0 mm 2 mps 750 mmHg 30%
    15:00 +26°C° 0 mm 2 mps 750 mmHg 32%
    16:00 +25°C° 0 mm 2 mps 750 mmHg 34%
    17:00 +24°C° 0 mm 2 mps 749 mmHg 36%
    18:00 +21°C° 0 mm 2 mps 750 mmHg 39%
    19:00 +20°C° 0 mm 2 mps 750 mmHg 42%
    20:00 +18°C° 0 mm 2 mps 750 mmHg 46%
    21:00 +19°C° 0 mm 1 mps 750 mmHg 47%
    22:00 +18°C° 0 mm 1 mps 750 mmHg 49%
    23:00 +18°C° 0 mm 1 mps 750 mmHg 51%

    23 October, Wednesday

    Time Temperature Precipitation Wind Pressure Humidity
    00:00 +16°C° 0 mm 1 mps 750 mmHg 52%
    01:00 +16°C° 0 mm 1 mps 750 mmHg 54%
    02:00 +15°C° 0 mm 1 mps 750 mmHg 55%
    03:00 +15°C° 0 mm 1 mps 750 mmHg 57%
    04:00 +15°C° 0 mm 1 mps 750 mmHg 58%
    05:00 +14°C° 0 mm 1 mps 750 mmHg 59%
    06:00 +14°C° 0 mm 0 mps 750 mmHg 58%
    07:00 +14°C° 0 mm 0 mps 750 mmHg 57%
    08:00 +15°C° 0 mm 0 mps 750 mmHg 56%
    09:00 +19°C° 0 mm 1 mps 750 mmHg 47%
    10:00 +20°C° 0 mm 2 mps 750 mmHg 39%
    11:00 +23°C° 0 mm 2 mps 750 mmHg 30%
    12:00 +24°C° 0 mm 3 mps 750 mmHg 27%
    13:00 +26°C° 0 mm 3 mps 750 mmHg 24%
    14:00 +27°C° 0 mm 4 mps 749 mmHg 21%
    15:00 +25°C° 0 mm 3 mps 749 mmHg 24%
    16:00 +24°C° 0 mm 3 mps 749 mmHg 28%
    17:00 +21°C° 0 mm 2 mps 749 mmHg 31%
    18:00 +20°C° 0 mm 2 mps 749 mmHg 35%
    19:00 +18°C° 0 mm 2 mps 749 mmHg 39%
    20:00 +16°C° 0 mm 2 mps 749 mmHg 43%
    21:00 +16°C° 0 mm 2 mps 749 mmHg 44%
    22:00 +15°C° 0 mm 1 mps 750 mmHg 45%
    23:00 +15°C° 0 mm 1 mps 750 mmHg 47%

    24 October, Thursday

    Time Temperature Precipitation Wind Pressure Humidity
    00:00 +14°C° 0 mm 1 mps 750 mmHg 48%
    01:00 +14°C° 0 mm 1 mps 749 mmHg 48%
    02:00 +14°C° 0 mm 1 mps 749 mmHg 49%
    03:00 +13°C° 0 mm 1 mps 749 mmHg 50%
    04:00 +13°C° 0 mm 1 mps 749 mmHg 51%
    05:00 +12°C° 0 mm 1 mps 749 mmHg 52%
    06:00 +12°C° 0 mm 0 mps 749 mmHg 51%
    07:00 +13°C° 0 mm 0 mps 749 mmHg 49%
    08:00 +13°C° 0 mm 0 mps 749 mmHg 48%
    09:00 +16°C° 0 mm 0 mps 749 mmHg 42%
    10:00 +20°C° 0 mm 1 mps 749 mmHg 36%
    11:00 +22°C° 0 mm 1 mps 749 mmHg 30%
    12:00 +23°C° 0 mm 2 mps 749 mmHg 27%
    13:00 +25°C° 0 mm 2 mps 748 mmHg 24%
    14:00 +26°C° 0 mm 2 mps 748 mmHg 21%
    15:00 +24°C° 0 mm 2 mps 748 mmHg 23%
    16:00 +23°C° 0 mm 2 mps 747 mmHg 26%
    17:00 +21°C° 0 mm 2 mps 747 mmHg 28%
    18:00 +19°C° 0 mm 2 mps 747 mmHg 31%
    19:00 +19°C° 0 mm 1 mps 747 mmHg 33%
    20:00 +16°C° 0 mm 1 mps 748 mmHg 36%
    21:00 +16°C° 0 mm 1 mps 748 mmHg 38%
    22:00 +15°C° 0 mm 1 mps 748 mmHg 39%
    23:00 +15°C° 0 mm 1 mps 748 mmHg 41%
    Show more